TimeEDT,TemperatureF,Dew PointF,Humidity,Sea Level PressureIn,VisibilityMPH,Wind Direction,Wind SpeedMPH,Gust SpeedMPH,PrecipitationIn,Events,Conditions,WindDirDegrees,DateUTC
12:54 AM,41.0,30.9,67,29.91,10.0,West,5.8,-,N/A,,Partly Cloudy,280,2013-03-27 04:54:00
1:54 AM,39.0,30.9,73,29.91,10.0,NW,4.6,-,N/A,,Clear,320,2013-03-27 05:54:00
2:54 AM,39.0,30.9,73,29.91,10.0,NW,4.6,-,N/A,,Clear,310,2013-03-27 06:54:00
3:54 AM,37.9,30.0,73,29.91,10.0,Variable,3.5,-,N/A,,Clear,0,2013-03-27 07:54:00
4:54 AM,37.0,30.0,76,29.92,10.0,Calm,Calm,-,N/A,,Clear,0,2013-03-27 08:54:00
5:54 AM,36.0,30.0,79,29.93,10.0,West,4.6,-,N/A,,Clear,280,2013-03-27 09:54:00
6:54 AM,36.0,30.0,79,29.95,10.0,WNW,4.6,-,N/A,,Clear,290,2013-03-27 10:54:00
7:54 AM,37.9,30.0,73,29.96,10.0,West,4.6,-,N/A,,Clear,280,2013-03-27 11:54:00
8:54 AM,42.1,30.0,62,29.98,10.0,WNW,8.1,-,N/A,,Clear,300,2013-03-27 12:54:00
9:54 AM,44.1,28.0,53,29.97,10.0,WNW,11.5,24.2,N/A,,Scattered Clouds,300,2013-03-27 13:54:00
10:54 AM,46.0,26.1,46,29.97,10.0,West,11.5,-,N/A,,Scattered Clouds,260,2013-03-27 14:54:00
11:54 AM,48.9,24.1,38,29.96,10.0,WNW,12.7,21.9,N/A,,Partly Cloudy,300,2013-03-27 15:54:00
12:54 PM,48.0,24.1,39,29.95,10.0,West,15.0,25.3,N/A,,Clear,270,2013-03-27 16:54:00
1:54 PM,50.0,23.0,35,29.94,10.0,WNW,11.5,23.0,N/A,,Partly Cloudy,300,2013-03-27 17:54:00
2:54 PM,50.0,21.9,33,29.92,10.0,NW,15.0,23.0,N/A,,Scattered Clouds,320,2013-03-27 18:54:00
3:54 PM,51.1,23.0,33,29.92,10.0,West,11.5,23.0,N/A,,Mostly Cloudy,280,2013-03-27 19:54:00
4:54 PM,50.0,24.1,36,29.93,10.0,WNW,11.5,21.9,N/A,,Partly Cloudy,300,2013-03-27 20:54:00
5:54 PM,48.9,25.0,39,29.94,10.0,West,16.1,29.9,N/A,,Mostly Cloudy,280,2013-03-27 21:54:00
6:54 PM,45.0,30.0,56,29.98,10.0,WNW,10.4,24.2,N/A,,Scattered Clouds,300,2013-03-27 22:54:00
7:54 PM,45.0,28.0,52,29.99,10.0,WNW,4.6,-,N/A,,Scattered Clouds,300,2013-03-27 23:54:00
8:54 PM,44.1,28.9,55,30.00,10.0,Calm,Calm,-,N/A,,Overcast,0,2013-03-28 00:54:00
9:54 PM,44.1,28.0,53,30.02,10.0,WNW,6.9,-,N/A,,Overcast,300,2013-03-28 01:54:00
10:54 PM,42.1,28.0,58,30.03,10.0,NW,5.8,-,N/A,,Clear,320,2013-03-28 02:54:00
11:54 PM,41.0,28.0,60,30.03,10.0,WNW,4.6,-,N/A,,Clear,290,2013-03-28 03:54:00